This is the latest recevied weather packets stored in our database for station/object OE6JUE. If no packets are shown the sender has not sent any weather packets the latest 10 day(s).
| Time | Temp. | Humidity | Pressure | Rain* | Wind** | Luminosity | Snow |
|---|---|---|---|---|---|---|---|
| 1788098917 | 32.22° C | 30% | 1017.5 hPa | 0 mm | - | - | - |
| 1788098618 | 32.78° C | 26% | 1017.6 hPa | 0 mm | - | - | - |
| 1788098318 | 32.78° C | 29% | 1017.6 hPa | 0 mm | - | - | - |
| 1788098018 | 32.78° C | 29% | 1017.6 hPa | 0 mm | - | - | - |
| 1788097717 | 32.22° C | 31% | 1017.7 hPa | 0 mm | - | - | - |
| 1788097417 | 31.67° C | 31% | 1017.7 hPa | 0 mm | - | - | - |
| 1788097118 | 32.22° C | 30% | 1017.8 hPa | 0 mm | - | - | - |
| 1788096817 | 31.67° C | 32% | 1017.8 hPa | 0 mm | - | - | - |
| 1788096518 | 31.67° C | 31% | 1018.1 hPa | 0 mm | - | - | - |
| 1788096217 | 31.67° C | 31% | 1017.9 hPa | 0 mm | - | - | - |
| 1788095918 | 31.67° C | 31% | 1018 hPa | 0 mm | - | - | - |
| 1788095617 | 31.67° C | 31% | 1018.1 hPa | 0 mm | - | - | - |
| 1788095317 | 31.67° C | 30% | 1018.1 hPa | 0 mm | - | - | - |
| 1788095017 | 31.67° C | 30% | 1018.3 hPa | 0 mm | - | - | - |
| 1788094718 | 31.11° C | 31% | 1018.2 hPa | 0 mm | - | - | - |
| 1788094418 | 31.11° C | 31% | 1018.2 hPa | 0 mm | - | - | - |
| 1788094118 | 31.11° C | 31% | 1018.1 hPa | 0 mm | - | - | - |
| 1788093817 | 31.11° C | 31% | 1018.2 hPa | 0 mm | - | - | - |
| 1788093518 | 31.11° C | 31% | 1018.2 hPa | 0 mm | - | - | - |
| 1788093218 | 31.11° C | 30% | 1018.1 hPa | 0 mm | - | - | - |
| 1788092917 | 31.67° C | 30% | 1018.3 hPa | 0 mm | - | - | - |
| 1788092624 | 31.11° C | 30% | 1018.3 hPa | 0 mm | - | - | - |
| 1788092317 | 31.11° C | 30% | 1018.4 hPa | 0 mm | - | - | - |
| 1788092017 | 30.56° C | 30% | 1018.4 hPa | 0 mm | - | - | - |
| 1788091718 | 30.56° C | 30% | 1018.4 hPa | 0 mm | - | - | - |
* Rain latest hour (hover to see other rain measurements)
** Current wind speed in m/s (hover to see current wind gust speed)